Weather in Ilagan

Philippines     17°08′13″N   121°52′18″E
temp.,
°C
wind,
m/s
gust,
m/s
humid.,
%
clouds,
%
prec.,
mm/h
press.,
hPa
HPBL,
m
13 april, tue
tue1323:00+24n258475 0.0 1014185
02:00+23n1289100 0.1 101246
05:00+23n119194 0.0 101318
08:00+26nne107649 0.0 1014568
11:00+32s115369 0.0 10121202
14:00+34ese2144100 0.0 10091886
17:00+33ese344996 0.0 1008872
20:00+26wsw247768 0.6 1011107
14 april, wed
wed1423:00+25nnw2387100 1.0 1013115
02:00+24n2287100 1.4 101159
05:00+23nw1190100 0.0 101223
08:00+27nnw117542 0.0 1014534
11:00+32e115319 0.1 10121423
14:00+34ene3246100 0.3 10082224
17:00+30s016570 1.1 100842
20:00+26sw128090 2.0 101153
15 april, thu
thu1523:00+25wnw128483 0.1 1012106
02:00+24nnw1385100 0.2 1011170
05:00+24n128746 0.0 101165
08:00+27n1175100 0.0 1012523
11:00+32se115426 0.1 10111426
14:00+33wsw1145100 0.1 10081749
17:00+32sse225185 0.0 1008673
20:00+28ssw2367100 0.5 1011161
16 april, fri
fri1623:00+26wnw2477100 0.4 1012296
02:00+25nne128374 0.4 101172
05:00+25nnw238390 0.0 1012189
08:00+27nnw227519 0.1 1013495
11:00+32wsw115368 0.1 10121395
14:00+35wnw014093 0.1 10091922
17:00+30e5760100 0.0 1009318
20:00+28w236898 0.1 1012222
17 april, sat
sat1723:00+26nnw357753 0.0 1013345
02:00+25n228257 0.2 1012157
05:00+24n228760 0.1 101254
08:00+27n227398 0.1 1014590
11:00+32nne115144 0.1 10131505
14:00+34ene324288 0.1 10102281
17:00+30ene445947 0.0 1010499
20:00+26nw227339 0.1 101355